Location: Chateh
(58.6667°N, 118.6000°W)
Time: 07:23:22
(UTC+00:00)

Gurwin Techsat 1B - Pass Details

Date: 09 December 2023
Orbit: 810 x 813 km, 98.9° (Epoch: 04 March)

Event Time Altitude Azimuth Distance (km) Brightness Sun altitude
Rises 15:03:22 0° 20° (NNE) 3,352 11.7 -10.0°
Drops below altitude 10° 15:08:40 10° 336° (NNW) 2,421 10.6 -9.4°
Maximum altitude 15:08:53 10° 334° (NNW) 2,420 10.6 -9.4°
Enters shadow 15:10:02 - 321° (NW) 2,468 10.5 -9.3°
